| time (UTC) | temp C | wind direction | speed KPH | gust KPH | rain 1hr cm | rain 24hr cm | rain mn cm | humidity % | barometer mb |
| 20260505151558 | 22 | 343 | 4.8 | 17.7 | 0.00 | 0.08 | 0.08 | 46 | 1005.7 |
| 20260505124534 | 18 | 120 | 0.0 | 6.4 | 0.00 | 0.08 | 0.08 | 61 | 1006.0 |
| 20260505123042 | 17 | 146 | 0.0 | 19.3 | 0.00 | 0.08 | 0.08 | 64 | 1006.1 |
| 20260505121529 | 16 | 165 | 0.0 | 16.1 | 0.00 | 0.08 | 0.08 | 68 | 1006.4 |
| 20260505120038 | 15 | 105 | 0.0 | 19.3 | 0.00 | 0.08 | 0.08 | 71 | 1006.4 |
| 20260505114525 | 15 | 151 | 1.6 | 17.7 | 0.00 | 0.08 | 0.08 | 71 | 1006.2 |
| 20260505113021 | 15 | 109 | 0.0 | 11.3 | 0.00 | 0.08 | 0.08 | 75 | 1006.2 |
| 20260505111529 | 13 | 116 | 0.0 | 6.4 | 0.00 | 0.08 | 0.08 | 78 | 1005.9 |
| 20260505101514 | 13 | 111 | 0.0 | 6.4 | 0.08 | 0.08 | 0.08 | 79 | 1005.5 |
| 20260505100012 | 13 | 128 | 3.2 | 14.5 | 0.08 | 0.08 | 0.08 | 79 | 1005.5 |
| 20260505094508 | 15 | 121 | 6.4 | 29.0 | 0.08 | 0.08 | 0.08 | 72 | 1005.8 |
| 20260505093005 | 15 | 111 | 1.6 | 12.9 | 0.00 | 0.00 | 0.00 | 67 | 1005.6 |
| 20260505091501 | 15 | 107 | 4.8 | 12.9 | 0.00 | 0.00 | 0.00 | 66 | 1005.5 |
| 20260505090001 | 15 | 106 | 0.0 | 6.4 | 0.00 | 0.00 | 0.00 | 64 | 1005.7 |
| 20260505084501 | 15 | 103 | 0.0 | 12.9 | 0.00 | 0.00 | 0.00 | 64 | 1005.9 |
| 20260505083001 | 15 | 138 | 0.0 | 8.0 | 0.00 | 0.00 | 0.00 | 63 | 1005.7 |
| 20260505081501 | 16 | 106 | 0.0 | 12.9 | 0.00 | 0.00 | 0.00 | 62 | 1005.2 |
| 20260505080106 | 15 | 123 | 0.0 | 17.7 | 0.00 | 0.00 | 0.00 | 63 | 1005.4 |
| 20260505074600 | 15 | 119 | 0.0 | 11.3 | 0.00 | 0.00 | 0.00 | 63 | 1005.3 |
| 20260505073103 | 16 | 117 | 4.8 | 12.9 | 0.00 | 0.00 | 0.00 | 62 | 1005.2 |
| 20260505071615 | 16 | 114 | 0.0 | 6.4 | 0.00 | 0.00 | 0.00 | 63 | 1005.4 |
| 20260505070104 | 16 | 168 | 0.0 | 8.0 | 0.00 | 0.00 | 0.00 | 62 | 1005.3 |
| 20260505064610 | 16 | 145 | 1.6 | 9.7 | 0.00 | 0.00 | 0.00 | 62 | 1005.3 |
| 20260505063101 | 16 | 149 | 1.6 | 8.0 | 0.00 | 0.00 | 0.00 | 62 | 1005.5 |
| 20260505061604 | 16 | 148 | 0.0 | 6.4 | 0.00 | 0.00 | 0.00 | 62 | 1005.4 |
| 20260505060103 | 16 | 143 | 0.0 | 8.0 | 0.00 | 0.00 | 0.00 | 62 | 1005.6 |
| 20260505054601 | 16 | 186 | 0.0 | 16.1 | 0.00 | 0.00 | 0.00 | 61 | 1005.8 |
| 20260505053059 | 16 | 121 | 1.6 | 9.7 | 0.00 | 0.00 | 0.00 | 61 | 1006.0 |
| 20260505051557 | 16 | 131 | 1.6 | 14.5 | 0.00 | 0.00 | 0.00 | 60 | 1006.1 |
| 20260505041603 | 17 | 148 | 0.0 | 8.0 | 0.00 | 0.00 | 0.00 | 58 | 1006.2 |
| 20260505040057 | 16 | 94 | 1.6 | 9.7 | 0.00 | 0.00 | 0.00 | 57 | 1006.1 |
| 20260505034555 | 17 | 177 | 1.6 | 11.3 | 0.00 | 0.00 | 0.00 | 55 | 1006.0 |
| 20260505033055 | 17 | 114 | 0.0 | 12.9 | 0.00 | 0.00 | 0.00 | 54 | 1005.9 |
| 20260505031555 | 17 | 195 | 0.0 | 3.2 | 0.00 | 0.00 | 0.00 | 53 | 1006.1 |
| 20260505030110 | 17 | 195 | 0.0 | 0.0 | 0.00 | 0.00 | 0.00 | 51 | 1006.3 |
| 20260505024559 | 17 | 195 | 0.0 | 3.2 | 0.00 | 0.00 | 0.00 | 50 | 1006.3 |
| 20260505023054 | 17 | 194 | 0.0 | 4.8 | 0.00 | 0.00 | 0.00 | 49 | 1006.3 |
| 20260505021553 | 17 | 158 | 0.0 | 3.2 | 0.00 | 0.00 | 0.00 | 49 | 1006.5 |
| 20260505020058 | 17 | 157 | 0.0 | 8.0 | 0.00 | 0.00 | 0.00 | 47 | 1006.5 |
| 20260505014607 | 17 | 117 | 0.0 | 6.4 | 0.00 | 0.00 | 0.00 | 46 | 1006.4 |
| 20260505013056 | 17 | 123 | 0.0 | 6.4 | 0.00 | 0.00 | 0.00 | 46 | 1006.3 |
| 20260505011556 | 18 | 148 | 0.0 | 12.9 | 0.00 | 0.00 | 0.00 | 45 | 1006.2 |
| 20260505004554 | 18 | 31 | 0.0 | 8.0 | 0.00 | 0.00 | 0.00 | 43 | 1005.8 |
| 20260505003059 | 18 | 181 | 0.0 | 3.2 | 0.00 | 0.00 | 0.00 | 41 | 1005.7 |
| 20260505001557 | 19 | 197 | 0.0 | 8.0 | 0.00 | 0.00 | 0.00 | 38 | 1005.7 |
| 20260505000056 | 20 | 235 | 0.0 | 11.3 | 0.00 | 0.00 | 0.00 | 36 | 1005.5 |
| 20260504234550 | 20 | 170 | 0.0 | 6.4 | 0.00 | 0.00 | 0.00 | 35 | 1005.5 |
| 20260504233049 | 20 | 208 | 1.6 | 11.3 | 0.00 | 0.00 | 0.00 | 35 | 1005.2 |
| 20260504231548 | 20 | 61 | 1.6 | 14.5 | 0.00 | 0.00 | 0.00 | 34 | 1005.2 |
| 20260504230050 | 21 | 134 | 0.0 | 16.1 | 0.00 | 0.00 | 0.00 | 33 | 1005.2 |
| 20260504224552 | 21 | 126 | 0.0 | 22.5 | 0.00 | 0.00 | 0.00 | 31 | 1005.0 |
| 20260504223102 | 21 | 130 | 3.2 | 27.4 | 0.00 | 0.00 | 0.00 | 30 | 1004.9 |
| 20260504221551 | 21 | 128 | 1.6 | 25.7 | 0.00 | 0.00 | 0.00 | 30 | 1005.0 |
| 20260504220048 | 21 | 127 | 0.0 | 17.7 | 0.00 | 0.00 | 0.00 | 29 | 1004.9 |
| 20260504214548 | 21 | 201 | 0.0 | 17.7 | 0.00 | 0.00 | 0.00 | 29 | 1004.9 |
| 20260504213047 | 22 | 129 | 1.6 | 12.9 | 0.00 | 0.00 | 0.00 | 30 | 1004.9 |
| 20260504211624 | 21 | 134 | 1.6 | 19.3 | 0.00 | 0.00 | 0.00 | 31 | 1005.0 |
| 20260504210050 | 22 | 169 | 0.0 | 11.3 | 0.00 | 0.00 | 0.00 | 29 | 1004.9 |
| 20260504204545 | 22 | 222 | 4.8 | 22.5 | 0.00 | 0.00 | 0.00 | 28 | 1005.2 |
| 20260504203044 | 22 | 223 | 1.6 | 12.9 | 0.00 | 0.00 | 0.00 | 26 | 1005.2 |
| 20260504201541 | 22 | 342 | 4.8 | 19.3 | 0.00 | 0.00 | 0.00 | 27 | 1005.4 |
| 20260504200042 | 22 | 328 | 0.0 | 30.6 | 0.00 | 0.00 | 0.00 | 28 | 1005.7 |
| 20260504194547 | 22 | 265 | 4.8 | 20.9 | 0.00 | 0.00 | 0.00 | 28 | 1006.0 |
| 20260504193037 | 22 | 299 | 11.3 | 29.0 | 0.00 | 0.00 | 0.00 | 27 | 1006.3 |
| 20260504191536 | 21 | 271 | 4.8 | 22.5 | 0.00 | 0.00 | 0.00 | 30 | 1006.5 |
| 20260504190030 | 21 | 282 | 8.0 | 22.5 | 0.00 | 0.00 | 0.00 | 32 | 1006.6 |
| 20260504184542 | 21 | 101 | 1.6 | 24.1 | 0.00 | 0.00 | 0.00 | 33 | 1007.1 |
| 20260504183027 | 21 | 333 | 3.2 | 22.5 | 0.00 | 0.00 | 0.00 | 31 | 1007.0 |
| 20260504181524 | 21 | 329 | 1.6 | 24.1 | 0.00 | 0.00 | 0.00 | 33 | 1007.3 |
| 20260504180025 | 20 | 269 | 3.2 | 29.0 | 0.00 | 0.00 | 0.00 | 35 | 1007.5 |
| 20260504174519 | 19 | 284 | 3.2 | 20.9 | 0.00 | 0.00 | 0.00 | 39 | 1007.6 |
| 20260504173017 | 18 | 264 | 1.6 | 14.5 | 0.00 | 0.00 | 0.00 | 40 | 1007.8 |
| 20260504171515 | 18 | 348 | 3.2 | 17.7 | 0.00 | 0.00 | 0.00 | 40 | 1008.1 |